Terminal Aerodrome Forecast
Issued by NWS Paducah, KY

Home | Current Version | Previous Version | Graphics & Text | Print | Product List | Glossary On
Versions: 1 2 3 4 5 6 7 8 9 10 11 12
000
FTUS43 KPAH 222300
TAFPAH
TAF
KPAH 222320Z 2300/2324 35010G16KT P6SM SKC
     FM230100 VRB03KT P6SM SKC
     FM231500 09007KT P6SM SKC=

USA.gov is the U.S. government's official web portal to all federal, state and local government web resources and services.